| time (UTC) | temp C | wind direction | speed KPH | gust KPH | rain 1hr cm | rain 24hr cm | rain mn cm | humidity % | barometer mb |
| 20260906024042 | 20 | 9 | 0.0 | 0.0 | 0.00 | 0.00 | 0.00 | 63 | 1023.7 |
| 20260906023641 | 20 | 9 | 0.0 | 0.0 | 0.00 | 0.00 | 0.00 | 63 | 1023.7 |
| 20260906023043 | 20 | 9 | 0.0 | 1.6 | 0.00 | 0.00 | 0.00 | 62 | 1023.6 |
| 20260906022541 | 20 | 9 | 0.0 | 1.6 | 0.00 | 0.00 | 0.00 | 61 | 1023.6 |
| 20260906022042 | 20 | 9 | 0.0 | 0.0 | 0.00 | 0.00 | 0.00 | 61 | 1023.6 |
| 20260906021441 | 20 | 9 | 0.0 | 0.0 | 0.00 | 0.00 | 0.00 | 61 | 1023.6 |
| 20260906021042 | 20 | 9 | 0.0 | 1.6 | 0.00 | 0.00 | 0.00 | 61 | 1023.6 |
| 20260906020341 | 20 | 9 | 0.0 | 1.6 | 0.00 | 0.00 | 0.00 | 61 | 1023.7 |
| 20260906020042 | 20 | 9 | 0.0 | 1.6 | 0.00 | 0.00 | 0.00 | 61 | 1023.5 |
| 20260906015241 | 21 | 9 | 0.0 | 1.6 | 0.00 | 0.00 | 0.00 | 60 | 1023.4 |
| 20260906015042 | 21 | 9 | 0.0 | 3.2 | 0.00 | 0.00 | 0.00 | 61 | 1023.4 |
| 20260906014141 | 21 | 19 | 1.6 | 6.4 | 0.00 | 0.00 | 0.00 | 59 | 1023.5 |
| 20260906014042 | 21 | 332 | 3.2 | 6.4 | 0.00 | 0.00 | 0.00 | 59 | 1023.4 |
| 20260906013053 | 21 | 344 | 0.0 | 3.2 | 0.00 | 0.00 | 0.00 | 60 | 1023.5 |
| 20260906012040 | 21 | 355 | 3.2 | 4.8 | 0.00 | 0.00 | 0.00 | 59 | 1023.4 |
| 20260906011042 | 21 | 331 | 1.6 | 4.8 | 0.00 | 0.00 | 0.00 | 58 | 1023.4 |
| 20260906010940 | 21 | 23 | 3.2 | 4.8 | 0.00 | 0.00 | 0.00 | 58 | 1023.4 |
| 20260906010041 | 21 | 349 | 0.0 | 8.0 | 0.00 | 0.00 | 0.00 | 58 | 1023.5 |
| 20260906005840 | 21 | 349 | 0.0 | 8.0 | 0.00 | 0.00 | 0.00 | 58 | 1023.4 |
| 20260906005041 | 21 | 334 | 3.2 | 6.4 | 0.00 | 0.00 | 0.00 | 57 | 1023.2 |
| 20260906004740 | 21 | 346 | 3.2 | 4.8 | 0.00 | 0.00 | 0.00 | 57 | 1023.3 |
| 20260906004041 | 21 | 18 | 0.0 | 6.4 | 0.00 | 0.00 | 0.00 | 57 | 1023.2 |
| 20260906003640 | 21 | 14 | 0.0 | 6.4 | 0.00 | 0.00 | 0.00 | 57 | 1023.2 |
| 20260906003041 | 21 | 28 | 3.2 | 8.0 | 0.00 | 0.00 | 0.00 | 56 | 1023.1 |
| 20260906002540 | 21 | 348 | 1.6 | 9.7 | 0.00 | 0.00 | 0.00 | 56 | 1023.0 |
| 20260906002041 | 21 | 31 | 1.6 | 9.7 | 0.00 | 0.00 | 0.00 | 56 | 1023.1 |
| 20260906001440 | 21 | 355 | 4.8 | 4.8 | 0.00 | 0.00 | 0.00 | 56 | 1023.1 |
| 20260906001041 | 21 | 66 | 1.6 | 14.5 | 0.00 | 0.00 | 0.00 | 56 | 1023.0 |
| 20260906000340 | 21 | 119 | 0.0 | 14.5 | 0.00 | 0.00 | 0.00 | 56 | 1023.1 |
| 20260906000041 | 21 | 18 | 3.2 | 12.9 | 0.00 | 0.00 | 0.00 | 56 | 1023.1 |
| 20260905235240 | 21 | 5 | 4.8 | 9.7 | 0.00 | 0.00 | 0.00 | 56 | 1023.1 |
| 20260905235041 | 21 | 360 | 6.4 | 9.7 | 0.00 | 0.00 | 0.00 | 56 | 1023.1 |
| 20260905234140 | 21 | 68 | 1.6 | 12.9 | 0.00 | 0.00 | 0.00 | 57 | 1023.0 |
| 20260905234041 | 21 | 9 | 4.8 | 12.9 | 0.00 | 0.00 | 0.00 | 57 | 1023.0 |
| 20260905233040 | 21 | 341 | 3.2 | 9.7 | 0.00 | 0.00 | 0.00 | 57 | 1022.9 |
| 20260905232042 | 21 | 348 | 3.2 | 3.2 | 0.00 | 0.00 | 0.00 | 58 | 1022.8 |
| 20260905231940 | 21 | 355 | 3.2 | 3.2 | 0.00 | 0.00 | 0.00 | 58 | 1022.7 |
| 20260905231042 | 20 | 288 | 0.0 | 3.2 | 0.00 | 0.00 | 0.00 | 57 | 1022.7 |
| 20260905230841 | 20 | 341 | 0.0 | 3.2 | 0.00 | 0.00 | 0.00 | 57 | 1022.6 |
| 20260905230042 | 20 | 345 | 1.6 | 4.8 | 0.00 | 0.00 | 0.00 | 57 | 1022.5 |
| 20260905225741 | 20 | 336 | 1.6 | 6.4 | 0.00 | 0.00 | 0.00 | 57 | 1022.6 |
| 20260905225042 | 20 | 306 | 3.2 | 6.4 | 0.00 | 0.00 | 0.00 | 57 | 1022.6 |
| 20260905224641 | 20 | 330 | 3.2 | 3.2 | 0.00 | 0.00 | 0.00 | 56 | 1022.6 |
| 20260905224042 | 21 | 360 | 0.0 | 1.6 | 0.00 | 0.00 | 0.00 | 57 | 1022.5 |
| 20260905223541 | 21 | 355 | 0.0 | 3.2 | 0.00 | 0.00 | 0.00 | 56 | 1022.4 |
| 20260905223042 | 21 | 360 | 0.0 | 3.2 | 0.00 | 0.00 | 0.00 | 56 | 1022.4 |
| 20260905222441 | 21 | 355 | 0.0 | 1.6 | 0.00 | 0.00 | 0.00 | 55 | 1022.3 |
| 20260905222042 | 21 | 355 | 0.0 | 1.6 | 0.00 | 0.00 | 0.00 | 55 | 1022.3 |
| 20260905221341 | 21 | 340 | 0.0 | 1.6 | 0.00 | 0.00 | 0.00 | 54 | 1022.2 |
| 20260905221042 | 21 | 340 | 0.0 | 3.2 | 0.00 | 0.00 | 0.00 | 53 | 1022.2 |
| 20260905220241 | 22 | 13 | 3.2 | 6.4 | 0.00 | 0.00 | 0.00 | 53 | 1022.1 |
| 20260905220042 | 22 | 10 | 1.6 | 6.4 | 0.00 | 0.00 | 0.00 | 53 | 1022.2 |
| 20260905215141 | 22 | 345 | 3.2 | 6.4 | 0.00 | 0.00 | 0.00 | 52 | 1021.9 |
| 20260905215042 | 22 | 360 | 3.2 | 6.4 | 0.00 | 0.00 | 0.00 | 52 | 1021.9 |
| 20260905214041 | 22 | 346 | 1.6 | 8.0 | 0.00 | 0.00 | 0.00 | 51 | 1021.9 |
| 20260905213042 | 22 | 19 | 1.6 | 9.7 | 0.00 | 0.00 | 0.00 | 51 | 1021.9 |
| 20260905212941 | 22 | 342 | 0.0 | 9.7 | 0.00 | 0.00 | 0.00 | 51 | 1021.9 |
| 20260905212042 | 23 | 5 | 6.4 | 9.7 | 0.00 | 0.00 | 0.00 | 50 | 1021.7 |
| 20260905211841 | 23 | 355 | 4.8 | 9.7 | 0.00 | 0.00 | 0.00 | 49 | 1021.7 |
| 20260905211042 | 23 | 355 | 6.4 | 9.7 | 0.00 | 0.00 | 0.00 | 49 | 1021.7 |
| 20260905210741 | 23 | 13 | 3.2 | 9.7 | 0.00 | 0.00 | 0.00 | 48 | 1021.6 |
| 20260905210044 | 23 | 360 | 4.8 | 17.7 | 0.00 | 0.00 | 0.00 | 48 | 1021.5 |
| 20260905205641 | 23 | 63 | 9.7 | 17.7 | 0.00 | 0.00 | 0.00 | 48 | 1021.5 |
| 20260905205042 | 23 | 15 | 4.8 | 17.7 | 0.00 | 0.00 | 0.00 | 47 | 1021.4 |
| 20260905204541 | 23 | 26 | 3.2 | 17.7 | 0.00 | 0.00 | 0.00 | 48 | 1021.4 |
| 20260905204042 | 23 | 5 | 9.7 | 16.1 | 0.00 | 0.00 | 0.00 | 47 | 1021.3 |
| 20260905203440 | 23 | 5 | 6.4 | 16.1 | 0.00 | 0.00 | 0.00 | 47 | 1021.2 |
| 20260905203042 | 23 | 5 | 12.9 | 16.1 | 0.00 | 0.00 | 0.00 | 48 | 1021.3 |
| 20260905202340 | 24 | 355 | 1.6 | 14.5 | 0.00 | 0.00 | 0.00 | 48 | 1021.1 |
| 20260905202042 | 24 | 13 | 8.0 | 16.1 | 0.00 | 0.00 | 0.00 | 48 | 1021.0 |
| 20260905201240 | 24 | 19 | 6.4 | 14.5 | 0.00 | 0.00 | 0.00 | 48 | 1021.0 |
| 20260905201041 | 24 | 18 | 3.2 | 14.5 | 0.00 | 0.00 | 0.00 | 48 | 1021.0 |
| 20260905200140 | 24 | 10 | 3.2 | 16.1 | 0.00 | 0.00 | 0.00 | 47 | 1020.8 |
| 20260905200042 | 24 | 30 | 6.4 | 16.1 | 0.00 | 0.00 | 0.00 | 48 | 1020.8 |
| 20260905195040 | 25 | 38 | 3.2 | 19.3 | 0.00 | 0.00 | 0.00 | 47 | 1020.5 |
| 20260905194042 | 25 | 355 | 6.4 | 17.7 | 0.00 | 0.00 | 0.00 | 47 | 1020.4 |
| 20260905193940 | 25 | 13 | 8.0 | 17.7 | 0.00 | 0.00 | 0.00 | 47 | 1020.4 |
| 20260905193042 | 25 | 114 | 3.2 | 22.5 | 0.00 | 0.00 | 0.00 | 48 | 1020.3 |
| 20260905192840 | 25 | 40 | 4.8 | 22.5 | 0.00 | 0.00 | 0.00 | 48 | 1020.3 |
| 20260905192041 | 25 | 42 | 8.0 | 20.9 | 0.00 | 0.00 | 0.00 | 48 | 1020.1 |
| 20260905191740 | 25 | 11 | 4.8 | 20.9 | 0.00 | 0.00 | 0.00 | 48 | 1020.0 |
| 20260905191041 | 25 | 13 | 8.0 | 20.9 | 0.00 | 0.00 | 0.00 | 48 | 1019.9 |
| 20260905190640 | 25 | 80 | 8.0 | 20.9 | 0.00 | 0.00 | 0.00 | 49 | 1019.8 |
| 20260905190042 | 25 | 355 | 9.7 | 22.5 | 0.00 | 0.00 | 0.00 | 49 | 1019.7 |
| 20260905185540 | 26 | 360 | 3.2 | 19.3 | 0.00 | 0.00 | 0.00 | 49 | 1019.5 |
| 20260905185041 | 26 | 34 | 4.8 | 20.9 | 0.00 | 0.00 | 0.00 | 48 | 1019.4 |
| 20260905184440 | 26 | 31 | 9.7 | 20.9 | 0.00 | 0.00 | 0.00 | 49 | 1019.4 |
| 20260905184042 | 26 | 5 | 12.9 | 20.9 | 0.00 | 0.00 | 0.00 | 48 | 1019.3 |
| 20260905183340 | 26 | 13 | 3.2 | 16.1 | 0.00 | 0.00 | 0.00 | 48 | 1019.2 |
| 20260905183041 | 26 | 50 | 6.4 | 16.1 | 0.00 | 0.00 | 0.00 | 48 | 1019.1 |
| 20260905182240 | 26 | 340 | 3.2 | 14.5 | 0.00 | 0.00 | 0.00 | 48 | 1018.9 |
| 20260905182041 | 26 | 360 | 1.6 | 19.3 | 0.00 | 0.00 | 0.00 | 48 | 1018.9 |
| 20260905181140 | 26 | 57 | 3.2 | 17.7 | 0.00 | 0.00 | 0.00 | 47 | 1018.6 |
| 20260905181041 | 26 | 28 | 4.8 | 19.3 | 0.00 | 0.00 | 0.00 | 47 | 1018.7 |
| 20260905180040 | 27 | 32 | 3.2 | 19.3 | 0.00 | 0.00 | 0.00 | 47 | 1018.5 |
| 20260905175042 | 27 | 83 | 4.8 | 27.4 | 0.00 | 0.00 | 0.00 | 46 | 1018.4 |
| 20260905174940 | 27 | 51 | 4.8 | 29.0 | 0.00 | 0.00 | 0.00 | 46 | 1018.3 |
| 20260905174041 | 27 | 81 | 4.8 | 20.9 | 0.00 | 0.00 | 0.00 | 46 | 1018.1 |
| 20260905173840 | 27 | 92 | 4.8 | 20.9 | 0.00 | 0.00 | 0.00 | 45 | 1018.2 |
| 20260905173043 | 27 | 59 | 3.2 | 16.1 | 0.00 | 0.00 | 0.00 | 45 | 1017.9 |
| 20260905172740 | 27 | 52 | 3.2 | 17.7 | 0.00 | 0.00 | 0.00 | 45 | 1018.0 |
| 20260905172042 | 28 | 76 | 14.5 | 19.3 | 0.00 | 0.00 | 0.00 | 46 | 1017.7 |
| 20260905171640 | 28 | 140 | 4.8 | 19.3 | 0.00 | 0.00 | 0.00 | 45 | 1017.7 |
| 20260905171042 | 28 | 59 | 4.8 | 20.9 | 0.00 | 0.00 | 0.00 | 45 | 1017.6 |
| 20260905170540 | 28 | 46 | 6.4 | 25.7 | 0.00 | 0.00 | 0.00 | 45 | 1017.4 |
| 20260905170042 | 28 | 82 | 8.0 | 25.7 | 0.00 | 0.00 | 0.00 | 45 | 1017.2 |
| 20260905165440 | 28 | 68 | 6.4 | 22.5 | 0.00 | 0.00 | 0.00 | 45 | 1017.2 |
| 20260905165041 | 28 | 59 | 6.4 | 32.2 | 0.00 | 0.00 | 0.00 | 45 | 1017.1 |
| 20260905164340 | 29 | 42 | 32.2 | 32.2 | 0.00 | 0.00 | 0.00 | 47 | 1017.0 |
| 20260905164042 | 29 | 80 | 12.9 | 22.5 | 0.00 | 0.00 | 0.00 | 47 | 1016.8 |
| 20260905163240 | 29 | 355 | 8.0 | 25.7 | 0.00 | 0.00 | 0.00 | 47 | 1016.9 |
| 20260905163042 | 29 | 79 | 8.0 | 25.7 | 0.00 | 0.00 | 0.00 | 47 | 1016.8 |
| 20260905162140 | 30 | 58 | 14.5 | 22.5 | 0.00 | 0.00 | 0.00 | 47 | 1016.8 |
| 20260905162042 | 30 | 63 | 6.4 | 25.7 | 0.00 | 0.00 | 0.00 | 47 | 1016.9 |
| 20260905161040 | 30 | 146 | 9.7 | 22.5 | 0.00 | 0.00 | 0.00 | 47 | 1016.7 |
| 20260905160042 | 30 | 123 | 4.8 | 24.1 | 0.00 | 0.00 | 0.00 | 47 | 1016.6 |
| 20260905155940 | 30 | 53 | 11.3 | 24.1 | 0.00 | 0.00 | 0.00 | 47 | 1016.5 |
| 20260905155042 | 30 | 259 | 16.1 | 24.1 | 0.00 | 0.00 | 0.00 | 46 | 1016.3 |
| 20260905154840 | 31 | 59 | 6.4 | 24.1 | 0.00 | 0.00 | 0.00 | 47 | 1016.2 |
| 20260905154041 | 31 | 40 | 6.4 | 33.8 | 0.00 | 0.00 | 0.00 | 47 | 1016.1 |
| 20260905153740 | 31 | 329 | 3.2 | 33.8 | 0.00 | 0.00 | 0.00 | 47 | 1016.1 |
| 20260905153041 | 32 | 74 | 6.4 | 32.2 | 0.00 | 0.00 | 0.00 | 47 | 1015.9 |
| 20260905152640 | 32 | 34 | 9.7 | 32.2 | 0.00 | 0.00 | 0.00 | 47 | 1015.8 |
| 20260905152041 | 32 | 39 | 6.4 | 33.8 | 0.00 | 0.00 | 0.00 | 46 | 1015.7 |
| 20260905151540 | 32 | 11 | 4.8 | 25.7 | 0.00 | 0.00 | 0.00 | 45 | 1015.7 |
| 20260905151041 | 33 | 30 | 9.7 | 25.7 | 0.00 | 0.00 | 0.00 | 45 | 1015.7 |
| 20260905150440 | 33 | 29 | 14.5 | 33.8 | 0.00 | 0.00 | 0.00 | 44 | 1015.6 |
| 20260905150041 | 33 | 29 | 16.1 | 33.8 | 0.00 | 0.00 | 0.00 | 43 | 1015.6 |
| 20260905145340 | 34 | 355 | 12.9 | 25.7 | 0.00 | 0.00 | 0.00 | 40 | 1015.6 |
| 20260905145041 | 34 | 19 | 3.2 | 25.7 | 0.00 | 0.00 | 0.00 | 40 | 1015.6 |
| 20260905144240 | 34 | 46 | 3.2 | 20.9 | 0.00 | 0.00 | 0.00 | 40 | 1015.6 |
| 20260905144041 | 35 | 329 | 9.7 | 20.9 | 0.00 | 0.00 | 0.00 | 40 | 1015.6 |
| 20260905143318 | 35 | 342 | 9.7 | 25.7 | 0.00 | 0.00 | 0.00 | 39 | 1015.6 |
| 20260905143041 | 35 | 318 | 3.2 | 22.5 | 0.00 | 0.00 | 0.00 | 39 | 1015.5 |
| 20260905142040 | 35 | 15 | 3.2 | 16.1 | 0.00 | 0.00 | 0.00 | 39 | 1015.6 |
| 20260905141041 | 35 | 9 | 17.7 | 20.9 | 0.00 | 0.00 | 0.00 | 38 | 1015.6 |
| 20260905140940 | 35 | 355 | 4.8 | 19.3 | 0.00 | 0.00 | 0.00 | 38 | 1015.6 |
| 20260905140041 | 35 | 342 | 6.4 | 19.3 | 0.00 | 0.00 | 0.00 | 39 | 1015.7 |
| 20260905135840 | 35 | 11 | 17.7 | 17.7 | 0.00 | 0.00 | 0.00 | 39 | 1015.7 |
| 20260905135042 | 35 | 135 | 3.2 | 17.7 | 0.00 | 0.00 | 0.00 | 39 | 1015.7 |
| 20260905134741 | 35 | 207 | 0.0 | 17.7 | 0.00 | 0.00 | 0.00 | 39 | 1015.7 |
| 20260905134042 | 36 | 5 | 1.6 | 17.7 | 0.00 | 0.00 | 0.00 | 39 | 1015.7 |
| 20260905133641 | 36 | 340 | 9.7 | 19.3 | 0.00 | 0.00 | 0.00 | 40 | 1015.7 |
| 20260905133042 | 35 | 232 | 6.4 | 19.3 | 0.00 | 0.00 | 0.00 | 40 | 1015.7 |
| 20260905132541 | 35 | 321 | 12.9 | 20.9 | 0.00 | 0.00 | 0.00 | 40 | 1015.8 |
| 20260905132042 | 35 | 22 | 6.4 | 20.9 | 0.00 | 0.00 | 0.00 | 40 | 1015.8 |
| 20260905131441 | 35 | 279 | 3.2 | 12.9 | 0.00 | 0.00 | 0.00 | 39 | 1015.7 |
| 20260905131042 | 35 | 290 | 8.0 | 12.9 | 0.00 | 0.00 | 0.00 | 39 | 1015.8 |
| 20260905130341 | 35 | 150 | 1.6 | 16.1 | 0.00 | 0.00 | 0.00 | 39 | 1016.0 |
| 20260905130042 | 35 | 271 | 6.4 | 16.1 | 0.00 | 0.00 | 0.00 | 41 | 1016.0 |
| 20260905125241 | 35 | 360 | 9.7 | 17.7 | 0.00 | 0.00 | 0.00 | 39 | 1016.1 |
| 20260905125043 | 35 | 340 | 6.4 | 17.7 | 0.00 | 0.00 | 0.00 | 39 | 1016.1 |
| 20260905124141 | 35 | 338 | 3.2 | 19.3 | 0.00 | 0.00 | 0.00 | 40 | 1016.2 |
| 20260905124042 | 35 | 259 | 3.2 | 19.3 | 0.00 | 0.00 | 0.00 | 40 | 1016.2 |
| 20260905123041 | 35 | 273 | 3.2 | 20.9 | 0.00 | 0.00 | 0.00 | 40 | 1016.2 |
| 20260905122042 | 36 | 263 | 11.3 | 22.5 | 0.00 | 0.00 | 0.00 | 39 | 1016.2 |
| 20260905121941 | 36 | 273 | 4.8 | 22.5 | 0.00 | 0.00 | 0.00 | 38 | 1016.3 |
| 20260905121043 | 36 | 278 | 3.2 | 16.1 | 0.00 | 0.00 | 0.00 | 39 | 1016.3 |
| 20260905120841 | 35 | 5 | 3.2 | 16.1 | 0.00 | 0.00 | 0.00 | 40 | 1016.4 |
| 20260905120042 | 35 | 339 | 1.6 | 12.9 | 0.00 | 0.00 | 0.00 | 39 | 1016.5 |
| 20260905115741 | 35 | 259 | 4.8 | 12.9 | 0.00 | 0.00 | 0.00 | 39 | 1016.5 |
| 20260905115042 | 35 | 273 | 6.4 | 16.1 | 0.00 | 0.00 | 0.00 | 40 | 1016.6 |
| 20260905114641 | 35 | 238 | 8.0 | 19.3 | 0.00 | 0.00 | 0.00 | 38 | 1016.5 |
| 20260905114041 | 35 | 305 | 12.9 | 19.3 | 0.00 | 0.00 | 0.00 | 38 | 1016.6 |
| 20260905113541 | 35 | 263 | 4.8 | 19.3 | 0.00 | 0.00 | 0.00 | 38 | 1016.6 |
| 20260905113042 | 35 | 263 | 11.3 | 12.9 | 0.00 | 0.00 | 0.00 | 39 | 1016.7 |
| 20260905112440 | 35 | 338 | 1.6 | 16.1 | 0.00 | 0.00 | 0.00 | 37 | 1016.8 |
| 20260905112042 | 35 | 259 | 3.2 | 16.1 | 0.00 | 0.00 | 0.00 | 39 | 1016.8 |
| 20260905111341 | 35 | 302 | 1.6 | 12.9 | 0.00 | 0.00 | 0.00 | 39 | 1016.9 |
| 20260905111042 | 35 | 251 | 3.2 | 12.9 | 0.00 | 0.00 | 0.00 | 38 | 1016.9 |
| 20260905110320 | 35 | 317 | 9.7 | 12.9 | 0.00 | 0.00 | 0.00 | 39 | 1016.9 |
| 20260905110041 | 35 | 273 | 3.2 | 17.7 | 0.00 | 0.00 | 0.00 | 39 | 1016.9 |
| 20260905105140 | 35 | 277 | 3.2 | 16.1 | 0.00 | 0.00 | 0.00 | 37 | 1016.9 |
| 20260905105042 | 35 | 270 | 14.5 | 16.1 | 0.00 | 0.00 | 0.00 | 38 | 1016.9 |
| 20260905104040 | 35 | 259 | 3.2 | 11.3 | 0.00 | 0.00 | 0.00 | 37 | 1016.9 |
| 20260905103043 | 34 | 44 | 1.6 | 14.5 | 0.00 | 0.00 | 0.00 | 37 | 1016.9 |
| 20260905102940 | 34 | 24 | 3.2 | 17.7 | 0.00 | 0.00 | 0.00 | 37 | 1016.8 |
| 20260905102042 | 34 | 269 | 4.8 | 16.1 | 0.00 | 0.00 | 0.00 | 36 | 1017.0 |
| 20260905101840 | 34 | 247 | 12.9 | 17.7 | 0.00 | 0.00 | 0.00 | 37 | 1017.1 |
| 20260905101041 | 34 | 31 | 12.9 | 12.9 | 0.00 | 0.00 | 0.00 | 38 | 1017.1 |
| 20260905100740 | 34 | 273 | 6.4 | 12.9 | 0.00 | 0.00 | 0.00 | 40 | 1017.1 |
| 20260905100043 | 34 | 320 | 3.2 | 12.9 | 0.00 | 0.00 | 0.00 | 38 | 1017.2 |
| 20260905095640 | 34 | 312 | 1.6 | 12.9 | 0.00 | 0.00 | 0.00 | 39 | 1017.1 |
| 20260905095041 | 33 | 254 | 3.2 | 11.3 | 0.00 | 0.00 | 0.00 | 39 | 1017.2 |
| 20260905094540 | 33 | 280 | 3.2 | 9.7 | 0.00 | 0.00 | 0.00 | 40 | 1017.1 |
| 20260905094042 | 33 | 252 | 6.4 | 8.0 | 0.00 | 0.00 | 0.00 | 40 | 1017.1 |
| 20260905093440 | 33 | 341 | 3.2 | 11.3 | 0.00 | 0.00 | 0.00 | 40 | 1017.0 |
| 20260905093042 | 33 | 347 | 0.0 | 11.3 | 0.00 | 0.00 | 0.00 | 40 | 1017.0 |
| 20260905092340 | 33 | 252 | 3.2 | 14.5 | 0.00 | 0.00 | 0.00 | 41 | 1017.0 |
| 20260905092041 | 33 | 259 | 1.6 | 14.5 | 0.00 | 0.00 | 0.00 | 40 | 1017.1 |
| 20260905091240 | 33 | 281 | 3.2 | 14.5 | 0.00 | 0.00 | 0.00 | 41 | 1017.1 |
| 20260905091041 | 33 | 287 | 3.2 | 14.5 | 0.00 | 0.00 | 0.00 | 41 | 1017.2 |
| 20260905090140 | 32 | 337 | 3.2 | 14.5 | 0.00 | 0.00 | 0.00 | 42 | 1017.1 |
| 20260905090041 | 32 | 5 | 6.4 | 14.5 | 0.00 | 0.00 | 0.00 | 42 | 1017.0 |
| 20260905085040 | 31 | 227 | 1.6 | 16.1 | 0.00 | 0.00 | 0.00 | 46 | 1017.0 |
| 20260905084042 | 31 | 282 | 6.4 | 11.3 | 0.00 | 0.00 | 0.00 | 44 | 1017.1 |
| 20260905083940 | 31 | 284 | 4.8 | 11.3 | 0.00 | 0.00 | 0.00 | 44 | 1017.1 |
| 20260905083041 | 31 | 5 | 0.0 | 9.7 | 0.00 | 0.00 | 0.00 | 44 | 1016.9 |
| 20260905082840 | 31 | 320 | 0.0 | 9.7 | 0.00 | 0.00 | 0.00 | 46 | 1017.0 |
| 20260905082041 | 30 | 283 | 6.4 | 12.9 | 0.00 | 0.00 | 0.00 | 45 | 1017.0 |
| 20260905081740 | 30 | 259 | 9.7 | 12.9 | 0.00 | 0.00 | 0.00 | 45 | 1017.1 |
| 20260905081041 | 30 | 244 | 8.0 | 11.3 | 0.00 | 0.00 | 0.00 | 48 | 1017.0 |
| 20260905080640 | 30 | 249 | 1.6 | 6.4 | 0.00 | 0.00 | 0.00 | 49 | 1017.0 |
| 20260905080042 | 29 | 249 | 1.6 | 9.7 | 0.00 | 0.00 | 0.00 | 50 | 1017.0 |
| 20260905075540 | 28 | 273 | 9.7 | 9.7 | 0.00 | 0.00 | 0.00 | 50 | 1017.0 |
| 20260905075041 | 28 | 250 | 4.8 | 8.0 | 0.00 | 0.00 | 0.00 | 51 | 1017.0 |
| 20260905074440 | 28 | 211 | 3.2 | 8.0 | 0.00 | 0.00 | 0.00 | 52 | 1016.9 |
| 20260905074041 | 27 | 234 | 4.8 | 8.0 | 0.00 | 0.00 | 0.00 | 52 | 1016.9 |
| 20260905073340 | 27 | 240 | 0.0 | 4.8 | 0.00 | 0.00 | 0.00 | 54 | 1016.8 |
| 20260905073042 | 27 | 244 | 1.6 | 4.8 | 0.00 | 0.00 | 0.00 | 55 | 1016.8 |
| 20260905072240 | 26 | 216 | 1.6 | 6.4 | 0.00 | 0.00 | 0.00 | 55 | 1016.9 |
| 20260905072041 | 26 | 241 | 1.6 | 6.4 | 0.00 | 0.00 | 0.00 | 55 | 1016.9 |
| 20260905071140 | 26 | 235 | 0.0 | 8.0 | 0.00 | 0.00 | 0.00 | 57 | 1016.8 |
| 20260905071041 | 26 | 237 | 0.0 | 8.0 | 0.00 | 0.00 | 0.00 | 57 | 1016.8 |
| 20260905070040 | 25 | 248 | 4.8 | 6.4 | 0.00 | 0.00 | 0.00 | 57 | 1016.7 |
| 20260905065043 | 24 | 191 | 1.6 | 6.4 | 0.00 | 0.00 | 0.00 | 58 | 1016.7 |
| 20260905064940 | 24 | 205 | 0.0 | 6.4 | 0.00 | 0.00 | 0.00 | 59 | 1016.6 |
| 20260905064041 | 23 | 224 | 3.2 | 6.4 | 0.00 | 0.00 | 0.00 | 60 | 1016.6 |
| 20260905063840 | 23 | 242 | 3.2 | 6.4 | 0.00 | 0.00 | 0.00 | 61 | 1016.6 |
| 20260905063041 | 23 | 232 | 0.0 | 4.8 | 0.00 | 0.00 | 0.00 | 62 | 1016.6 |
| 20260905062740 | 23 | 239 | 1.6 | 3.2 | 0.00 | 0.00 | 0.00 | 63 | 1016.6 |
| 20260905062041 | 22 | 146 | 0.0 | 4.8 | 0.00 | 0.00 | 0.00 | 62 | 1016.5 |
| 20260905061640 | 22 | 140 | 1.6 | 6.4 | 0.00 | 0.00 | 0.00 | 62 | 1016.4 |
| 20260905061043 | 22 | 196 | 0.0 | 6.4 | 0.00 | 0.00 | 0.00 | 61 | 1016.4 |
| 20260905060540 | 22 | 142 | 0.0 | 8.0 | 0.00 | 0.00 | 0.00 | 62 | 1016.4 |
| 20260905060043 | 22 | 155 | 3.2 | 8.0 | 0.00 | 0.00 | 0.00 | 62 | 1016.4 |
| 20260905055440 | 22 | 133 | 1.6 | 9.7 | 0.00 | 0.00 | 0.00 | 62 | 1016.4 |
| 20260905055041 | 22 | 126 | 1.6 | 9.7 | 0.00 | 0.00 | 0.00 | 61 | 1016.4 |
| 20260905054340 | 22 | 150 | 3.2 | 9.7 | 0.00 | 0.00 | 0.00 | 62 | 1016.4 |
| 20260905054042 | 22 | 124 | 3.2 | 9.7 | 0.00 | 0.00 | 0.00 | 63 | 1016.3 |
| 20260905053240 | 22 | 151 | 3.2 | 11.3 | 0.00 | 0.00 | 0.00 | 62 | 1016.4 |
| 20260905053041 | 21 | 155 | 6.4 | 11.3 | 0.00 | 0.00 | 0.00 | 62 | 1016.4 |
| 20260905052140 | 21 | 155 | 4.8 | 9.7 | 0.00 | 0.00 | 0.00 | 62 | 1016.4 |
| 20260905052041 | 21 | 125 | 8.0 | 9.7 | 0.00 | 0.00 | 0.00 | 63 | 1016.4 |
| 20260905051040 | 21 | 154 | 4.8 | 11.3 | 0.00 | 0.00 | 0.00 | 63 | 1016.4 |
| 20260905050042 | 21 | 177 | 4.8 | 9.7 | 0.00 | 0.00 | 0.00 | 63 | 1016.6 |
| 20260905045940 | 21 | 151 | 3.2 | 9.7 | 0.00 | 0.00 | 0.00 | 62 | 1016.5 |
| 20260905045041 | 21 | 183 | 4.8 | 11.3 | 0.00 | 0.00 | 0.00 | 63 | 1016.5 |
| 20260905044840 | 21 | 170 | 8.0 | 11.3 | 0.00 | 0.00 | 0.00 | 62 | 1016.5 |
| 20260905044042 | 21 | 150 | 1.6 | 9.7 | 0.00 | 0.00 | 0.00 | 62 | 1016.5 |
| 20260905043741 | 21 | 148 | 3.2 | 9.7 | 0.00 | 0.00 | 0.00 | 63 | 1016.4 |
| 20260905043042 | 21 | 160 | 3.2 | 4.8 | 0.00 | 0.00 | 0.00 | 63 | 1016.5 |
| 20260905042641 | 21 | 132 | 0.0 | 3.2 | 0.00 | 0.00 | 0.00 | 63 | 1016.5 |
| 20260905042042 | 21 | 154 | 0.0 | 4.8 | 0.00 | 0.00 | 0.00 | 63 | 1016.5 |
| 20260905041541 | 21 | 150 | 0.0 | 8.0 | 0.00 | 0.00 | 0.00 | 62 | 1016.4 |
| 20260905041042 | 21 | 162 | 6.4 | 8.0 | 0.00 | 0.00 | 0.00 | 62 | 1016.5 |
| 20260905040441 | 21 | 128 | 3.2 | 9.7 | 0.00 | 0.00 | 0.00 | 62 | 1016.5 |
| 20260905040042 | 21 | 144 | 4.8 | 11.3 | 0.00 | 0.00 | 0.00 | 62 | 1016.5 |
| 20260905035341 | 21 | 162 | 3.2 | 11.3 | 0.00 | 0.00 | 0.00 | 62 | 1016.5 |
| 20260905035042 | 21 | 142 | 6.4 | 11.3 | 0.00 | 0.00 | 0.00 | 62 | 1016.5 |
| 20260905034241 | 21 | 142 | 4.8 | 11.3 | 0.00 | 0.00 | 0.00 | 62 | 1016.5 |
| 20260905034042 | 21 | 107 | 9.7 | 9.7 | 0.00 | 0.00 | 0.00 | 62 | 1016.6 |
| 20260905033141 | 21 | 138 | 6.4 | 9.7 | 0.00 | 0.00 | 0.00 | 62 | 1016.5 |
| 20260905033042 | 21 | 145 | 6.4 | 8.0 | 0.00 | 0.00 | 0.00 | 62 | 1016.6 |
| 20260905032041 | 21 | 141 | 4.8 | 11.3 | 0.00 | 0.00 | 0.00 | 62 | 1016.7 |
| 20260905031046 | 21 | 182 | 4.8 | 9.7 | 0.00 | 0.00 | 0.00 | 62 | 1016.7 |
| 20260905030941 | 21 | 157 | 3.2 | 9.7 | 0.00 | 0.00 | 0.00 | 62 | 1016.7 |
| 20260905030042 | 21 | 151 | 4.8 | 11.3 | 0.00 | 0.00 | 0.00 | 62 | 1016.7 |
| 20260905025841 | 21 | 132 | 8.0 | 11.3 | 0.00 | 0.00 | 0.00 | 62 | 1016.7 |
| 20260905025041 | 21 | 135 | 6.4 | 12.9 | 0.00 | 0.00 | 0.00 | 62 | 1016.7 |
| 20260905024741 | 21 | 157 | 8.0 | 12.9 | 0.00 | 0.00 | 0.00 | 62 | 1016.7 |